STARLINK-2236, 48582

Orbit data source: Space-Track

STARLINK-2236, 48582 is a payload satellite owned by SpaceX/Seattle (US) in LEO that was launched on Sat, 15 May 2021 UTC via an FALCON 9 launch vehicle from the Air Force Eastern Test Range (AFETR). Payload-class satellites include a variety of spacecraft equipped with specific instruments for various scientific and technological missions. These include communications satellites like Starlink; space stations such as the ISS; scientific satellites like the Hubble; Earth observation satellites from companies like Planet Labs, Umbra, and HawkEye 360; GPS; miniature CubeSats for education and research; and military/defense satellites.

Loading next visibility...
Identifier
48582, 2021-041AF
Orbit
LEO
Last TLE update
8 hours ago
Origin
Manufacturer
SpaceX/Seattle
Mission
Operational Commercial Communications
Bus & Motor
STARLINK, Unknown motor
Mass
260 kg wet, ~248 kg dry
Launch date (UTC)
2021-05-15 (4 years ago)
Launch vehicle
FALCON 9
Launch site
Air Force Eastern Test Range (AFETR)
Object type
Payload
Rocket body
Debris
Shape & HBR
Box + 1 Pan, 8.86 m
Radar Cross Section
13.562 m², Large (>1 m²)

Expand to show TLE details & history

TLE from 8 hours ago
0 STARLINK-2236
1 48582U 21041AF  25130.08770708  .00002010  00000-0  15378-3 0  9993
2 48582  53.0551  19.7034 0001210  98.0947 262.0180 15.06398200220370
Epoch: 2025-05-10T02:06Z
Definitive object data (Epoch: 2025-05-10T02:06:17.891Z)
Latitude
0.00002°
Longitude
119.99434°
Altitude
548.213 km
Speed
7.589 km/s
True Right ascension
01h 18m 48s
True Declination
0° 00' 00"
Sunlit
Object was in daylight at TLE epoch
Visualization TLE readout
Latitude
9.15172°
Longitude
125.41572°
Altitude
547.331 km
Speed
7.59 km/s
Apparent Right ascension
03h 34m 03s
Apparent Declination
-17° 05' 26"
Sunlit
Object is in daylight
Visualization observer readout
Local Sidereal Time
18:20:24
Azimuth
69.805° E
Elevation
-47.47°
Doppler factor
1
Orbital elements
Apogee altitude
548.326 km
Perigee altitude
546.65 km
Semi-major axis
6,925.625 km
Eccentricity
0.000121
Inclination
53.0551°
RAAN
19.7034°
Arg. of periapsis
98.0947°
True anomaly
262.00427°
Mean anomaly
262.018°
Eccentric anomaly
262.01113°
Mean motion
3.76578 °/min
BSTAR
0.00015378
Orbital period
95.6 mins
Loading maneuver chart data...
Loading SW <> Apogee altitude chart data...
Loading historical data...
Loading historical data...
Loading historical data...
Loading historical data...
Loading historical data...
Loading historical data...
Loading historical data...

STARLINK-2236 Visibility forecast

Observer location: undefined°, undefined°

Span
Click to sort rows by Start time (UTC) header in descending order
Start Az.
Max El. time (UTC)
Max El. Az.
Max El.
End time (UTC)
End Az.
5 mins2025-05-10 18:11:01.332Z166.817° S2025-05-10 18:13:01.332Z131.903° SE19.103°2025-05-10 18:16:01.332Z82.064° E
6 mins2025-05-10 19:50:01.332Z252.719° W2025-05-10 19:52:01.332Z298.716° NW38.664°2025-05-10 19:56:01.332Z42.049° NE
4 mins2025-05-10 21:31:01.332Z315.697° NNW2025-05-10 21:33:01.332Z350.589° N16.194°2025-05-10 21:35:01.332Z21.68° NNE
5 mins2025-05-11 00:52:01.332Z340.898° N2025-05-11 00:54:01.332Z22.291° NNE24.603°2025-05-11 00:57:01.332Z80.349° E
6 mins2025-05-11 02:31:01.332Z297.605° NW2025-05-11 02:34:01.332Z216.786° SW39.212°2025-05-11 02:37:01.332Z150.091° SSE
|